Terug naar catalogus

STARLINK-32917

ActiefCommunicatieVLEO
NORAD 62921·PAYLOAD·🇺🇸 United States

Gelanceerd Feb 8, 2025 vanaf Cape Canaveral Space Force Station

Loading…

Volgende Passages (komende 24 uur)

TLE

VersSource: CelesTrak SupGP

Epoch: Sep 15, 2026, 03:36 UTC

1 62921C 25027Q   26258.15048611  .00072127  00000+0  26124-2 0  2588
2 62921  43.0021 138.9553 0001442 279.1551 210.0627 15.27543191    14

Volg STARLINK-32917 in realtime met AllMySat

Download on the App Store